Hourly Weather Kipungo

Today, 23 September, Wednesday

Time Temperature Precipitation Wind Pressure Humidity
00:00 +19°C° 0 mm 2 mps 654 mmHg 71%
01:00 +19°C° 0 mm 3 mps 654 mmHg 73%
02:00 +19°C° 0 mm 2 mps 654 mmHg 76%
03:00 +19°C° 0 mm 1 mps 653 mmHg 79%
04:00 +16°C° 0 mm 0 mps 653 mmHg 82%
05:00 +19°C° 0 mm 1 mps 654 mmHg 75%
06:00 +20°C° 0 mm 1 mps 654 mmHg 68%
07:00 +21°C° 0 mm 2 mps 655 mmHg 60%
08:00 +26°C° 0 mm 1 mps 656 mmHg 47%
09:00 +30°C° 0 mm 1 mps 657 mmHg 34%
10:00 +34°C° 0 mm 1 mps 658 mmHg 21%
11:00 +36°C° 0 mm 2 mps 657 mmHg 19%
12:00 +38°C° 0 mm 3 mps 656 mmHg 17%
13:00 +39°C° 0 mm 3 mps 655 mmHg 14%
14:00 +38°C° 0 mm 3 mps 655 mmHg 15%
15:00 +36°C° 0 mm 3 mps 654 mmHg 17%
16:00 +35°C° 0 mm 2 mps 653 mmHg 18%
17:00 +32°C° 0 mm 2 mps 653 mmHg 21%
18:00 +30°C° 0 mm 1 mps 653 mmHg 24%
19:00 +28°C° 0 mm 1 mps 654 mmHg 27%
20:00 +26°C° 0 mm 1 mps 654 mmHg 37%
21:00 +24°C° 0 mm 2 mps 654 mmHg 46%
22:00 +21°C° 0 mm 2 mps 654 mmHg 56%
23:00 +20°C° 0 mm 2 mps 654 mmHg 62%

Tomorrow, 24 September, Thursday

Time Temperature Precipitation Wind Pressure Humidity
00:00 +19°C° 0 mm 2 mps 653 mmHg 68%
01:00 +18°C° 0 mm 1 mps 653 mmHg 75%
02:00 +18°C° 0 mm 1 mps 653 mmHg 76%
03:00 +16°C° 0 mm 1 mps 652 mmHg 78%
04:00 +16°C° 0 mm 1 mps 652 mmHg 79%
05:00 +18°C° 0 mm 1 mps 653 mmHg 73%
06:00 +19°C° 0 mm 1 mps 654 mmHg 67%
07:00 +18°C° 0 mm 0 mps 654 mmHg 61%
08:00 +25°C° 0 mm 1 mps 655 mmHg 46%
09:00 +30°C° 0 mm 2 mps 656 mmHg 32%
10:00 +35°C° 0 mm 2 mps 657 mmHg 18%
11:00 +37°C° 0 mm 3 mps 656 mmHg 15%
12:00 +38°C° 0 mm 3 mps 656 mmHg 13%
13:00 +39°C° 0 mm 3 mps 655 mmHg 10%
14:00 +39°C° 0 mm 2 mps 655 mmHg 10%
15:00 +39°C° 0 mm 2 mps 654 mmHg 9%
16:00 +39°C° 0 mm 2 mps 654 mmHg 9%
17:00 +35°C° 0 mm 2 mps 654 mmHg 15%
18:00 +30°C° 0 mm 3 mps 653 mmHg 22%
19:00 +26°C° 0 mm 4 mps 653 mmHg 28%
20:00 +24°C° 0 mm 3 mps 653 mmHg 41%
21:00 +21°C° 0 mm 3 mps 653 mmHg 54%
22:00 +18°C° 0 mm 2 mps 653 mmHg 67%
23:00 +18°C° 0 mm 2 mps 653 mmHg 71%

Day after tomorrow, 25 September, Friday

Time Temperature Precipitation Wind Pressure Humidity
00:00 +17°C° 0 mm 2 mps 653 mmHg 76%
01:00 +16°C° 0 mm 1 mps 653 mmHg 81%
02:00 +15°C° 0 mm 1 mps 652 mmHg 82%
03:00 +15°C° 0 mm 1 mps 652 mmHg 84%
04:00 +14°C° 0 mm 1 mps 652 mmHg 86%
05:00 +15°C° 0 mm 1 mps 653 mmHg 78%
06:00 +16°C° 0 mm 0 mps 653 mmHg 69%
07:00 +17°C° 0 mm 0 mps 654 mmHg 61%
08:00 +24°C° 0 mm 1 mps 655 mmHg 45%
09:00 +28°C° 0 mm 2 mps 656 mmHg 30%
10:00 +33°C° 0 mm 3 mps 656 mmHg 14%
11:00 +35°C° 0 mm 2 mps 656 mmHg 12%
12:00 +38°C° 0 mm 2 mps 655 mmHg 10%
13:00 +40°C° 0 mm 2 mps 655 mmHg 8%
14:00 +39°C° 0 mm 2 mps 654 mmHg 8%
15:00 +39°C° 0 mm 2 mps 654 mmHg 8%
16:00 +38°C° 0 mm 2 mps 653 mmHg 8%
17:00 +35°C° 0 mm 2 mps 653 mmHg 13%
18:00 +30°C° 0 mm 3 mps 653 mmHg 18%
19:00 +26°C° 0 mm 3 mps 653 mmHg 23%
20:00 +24°C° 0 mm 3 mps 652 mmHg 37%
21:00 +21°C° 0 mm 3 mps 652 mmHg 50%
22:00 +18°C° 0 mm 3 mps 652 mmHg 64%
23:00 +17°C° 0 mm 3 mps 652 mmHg 69%

26 September, Saturday

Time Temperature Precipitation Wind Pressure Humidity
00:00 +16°C° 0 mm 2 mps 652 mmHg 74%
01:00 +15°C° 0 mm 2 mps 651 mmHg 80%
02:00 +15°C° 0 mm 2 mps 651 mmHg 80%
03:00 +14°C° 0 mm 1 mps 651 mmHg 81%
04:00 +13°C° 0 mm 1 mps 651 mmHg 81%
05:00 +15°C° 0 mm 1 mps 652 mmHg 71%
06:00 +16°C° 0 mm 1 mps 652 mmHg 61%
07:00 +19°C° 0 mm 1 mps 653 mmHg 51%
08:00 +23°C° 0 mm 1 mps 654 mmHg 38%
09:00 +28°C° 0 mm 2 mps 655 mmHg 26%
10:00 +33°C° 0 mm 3 mps 656 mmHg 14%
11:00 +35°C° 0 mm 3 mps 655 mmHg 12%
12:00 +36°C° 0 mm 3 mps 654 mmHg 10%
13:00 +38°C° 0 mm 3 mps 654 mmHg 9%
14:00 +38°C° 0 mm 3 mps 653 mmHg 9%
15:00 +38°C° 0 mm 2 mps 653 mmHg 8%
16:00 +38°C° 0 mm 2 mps 652 mmHg 8%
17:00 +34°C° 0 mm 3 mps 652 mmHg 14%
18:00 +30°C° 0 mm 3 mps 652 mmHg 20%
19:00 +26°C° 0 mm 4 mps 652 mmHg 26%
20:00 +24°C° 0 mm 3 mps 652 mmHg 40%
21:00 +20°C° 0 mm 3 mps 652 mmHg 54%
22:00 +18°C° 0 mm 3 mps 651 mmHg 68%
23:00 +17°C° 0 mm 2 mps 651 mmHg 74%

27 September, Sunday

Time Temperature Precipitation Wind Pressure Humidity
00:00 +15°C° 0 mm 2 mps 651 mmHg 81%
01:00 +14°C° 0 mm 2 mps 650 mmHg 87%
02:00 +14°C° 0 mm 1 mps 650 mmHg 89%
03:00 +13°C° 0 mm 1 mps 650 mmHg 90%
04:00 +13°C° 0 mm 1 mps 650 mmHg 92%
05:00 +14°C° 0 mm 1 mps 651 mmHg 83%
06:00 +14°C° 0 mm 0 mps 652 mmHg 74%
07:00 +16°C° 0 mm 0 mps 652 mmHg 66%
08:00 +22°C° 0 mm 1 mps 653 mmHg 49%
09:00 +27°C° 0 mm 1 mps 654 mmHg 32%
10:00 +31°C° 0 mm 2 mps 655 mmHg 15%
11:00 +34°C° 0 mm 2 mps 654 mmHg 13%
12:00 +36°C° 0 mm 3 mps 654 mmHg 10%
13:00 +38°C° 0 mm 3 mps 653 mmHg 8%
14:00 +38°C° 0 mm 3 mps 653 mmHg 8%
15:00 +38°C° 0 mm 2 mps 652 mmHg 8%
16:00 +38°C° 0 mm 2 mps 652 mmHg 8%
17:00 +34°C° 0 mm 2 mps 652 mmHg 12%
18:00 +30°C° 0 mm 2 mps 652 mmHg 15%
19:00 +26°C° 0 mm 2 mps 652 mmHg 19%
20:00 +24°C° 0 mm 2 mps 652 mmHg 34%
21:00 +20°C° 0 mm 3 mps 652 mmHg 48%
22:00 +18°C° 0 mm 3 mps 652 mmHg 63%
23:00 +17°C° 0 mm 2 mps 651 mmHg 69%

28 September, Monday

Time Temperature Precipitation Wind Pressure Humidity
00:00 +16°C° 0 mm 2 mps 651 mmHg 76%
01:00 +14°C° 0 mm 1 mps 651 mmHg 83%
02:00 +14°C° 0 mm 1 mps 651 mmHg 85%
03:00 +13°C° 0 mm 1 mps 650 mmHg 88%
04:00 +13°C° 0 mm 1 mps 650 mmHg 90%
05:00 +14°C° 0 mm 1 mps 651 mmHg 82%
06:00 +16°C° 0 mm 1 mps 652 mmHg 73%
07:00 +16°C° 0 mm 0 mps 653 mmHg 65%
08:00 +23°C° 0 mm 1 mps 654 mmHg 48%
09:00 +27°C° 0 mm 2 mps 655 mmHg 31%
10:00 +32°C° 0 mm 2 mps 656 mmHg 14%
11:00 +35°C° 0 mm 3 mps 655 mmHg 11%
12:00 +37°C° 0 mm 3 mps 655 mmHg 9%
13:00 +39°C° 0 mm 3 mps 654 mmHg 6%
14:00 +39°C° 0 mm 3 mps 654 mmHg 6%
15:00 +39°C° 0 mm 3 mps 653 mmHg 6%
16:00 +39°C° 0 mm 2 mps 653 mmHg 6%
17:00 +35°C° 0 mm 2 mps 653 mmHg 11%
18:00 +30°C° 0 mm 3 mps 652 mmHg 15%
19:00 +27°C° 0 mm 3 mps 652 mmHg 19%
20:00 +24°C° 0 mm 3 mps 652 mmHg 33%
21:00 +21°C° 0 mm 3 mps 653 mmHg 47%
22:00 +19°C° 0 mm 3 mps 653 mmHg 62%
23:00 +17°C° 0 mm 3 mps 652 mmHg 70%
Show more